This is the latest recevied weather packets stored in our database for station/object OH2EGI-2. If no packets are shown the sender has not sent any weather packets the latest 10 day(s).
| Time | Temp. | Humidity | Pressure | Rain* | Wind** | Luminosity | Snow |
|---|---|---|---|---|---|---|---|
| 1777748807 | 10.56° C | 57% | 1000.2 hPa | 0 mm | - | - | - |
| 1777748507 | 11.11° C | 57% | 1000.3 hPa | 0 mm | - | - | - |
| 1777748207 | 11.67° C | 56% | 1000.3 hPa | 0 mm | - | - | - |
| 1777747907 | 11.67° C | 55% | 1000.4 hPa | 0 mm | - | - | - |
| 1777747607 | 11.67° C | 54% | 1000.4 hPa | 0 mm | - | - | - |
| 1777747307 | 12.22° C | 54% | 1000.4 hPa | 0 mm | - | - | - |
| 1777747007 | 12.22° C | 54% | 1000.5 hPa | 0 mm | - | - | - |
| 1777746707 | 12.78° C | 53% | 1000.4 hPa | 0 mm | - | - | - |
| 1777746407 | 12.78° C | 52% | 1000.4 hPa | 0 mm | - | - | - |
| 1777746107 | 12.78° C | 51% | 1000.4 hPa | 0 mm | - | - | - |
| 1777745807 | 13.33° C | 51% | 1000.4 hPa | 0 mm | - | - | - |
| 1777745507 | 13.33° C | 50% | 1000.4 hPa | 0 mm | - | - | - |
| 1777745207 | 13.89° C | 49% | 1000.4 hPa | 0 mm | - | - | - |
| 1777744907 | 13.89° C | 49% | 1000.4 hPa | 0 mm | - | - | - |
| 1777744607 | 13.89° C | 48% | 1000.3 hPa | 0 mm | - | - | - |
| 1777744307 | 14.44° C | 47% | 1000.3 hPa | 0 mm | - | - | - |
| 1777744007 | 14.44° C | 46% | 1000.4 hPa | 0 mm | - | - | - |
| 1777743707 | 15° C | 45% | 1000.2 hPa | 0 mm | - | - | - |
| 1777743407 | 15.56° C | 44% | 1000.3 hPa | 0 mm | - | - | - |
| 1777743107 | 15.56° C | 44% | 1000.3 hPa | 0 mm | - | - | - |
| 1777742807 | 16.11° C | 43% | 1000.2 hPa | 0 mm | - | - | - |
| 1777742507 | 16.67° C | 41% | 1000.1 hPa | 0 mm | - | - | - |
| 1777742207 | 17.22° C | 40% | 1000.1 hPa | 0 mm | - | - | - |
| 1777741907 | 17.78° C | 40% | 1000 hPa | 0 mm | - | - | - |
| 1777741607 | 17.78° C | 40% | 1000 hPa | 0 mm | - | - | - |
* Rain latest hour (hover to see other rain measurements)
** Current wind speed in m/s (hover to see current wind gust speed)